Terug naar catalogus

ARIANE 44L+3 R/B

ActiefHEO
NORAD 23950·ROCKET BODY·🇫🇷 France

Gelanceerd Jul 9, 1996 vanaf Guiana Space Centre

Loading…

Volgende Passages (komende 24 uur)

TLE

VersSource: Space-Track

Epoch: Sep 14, 2026, 08:23 UTC

1 23950U 96040C   26257.34932500  .00000667  00000-0  54635-3 0  9991
2 23950   6.7671 112.8981 6888469 327.9578   4.4944  2.74843861273738

Volg ARIANE 44L+3 R/B in realtime met AllMySat

Download on the App Store